{"data":{"norad_id":64739,"epoch":"2026-05-25T03:08:37.247424Z","epoch_age_seconds":60734,"freshness":"FRESH","line1":"1 64739U 25144R   26145.13098666  .00015992  00000+0  55081-3 0  9999","line2":"2 64739  53.1582 186.1003 0001217  83.7337 276.3802 15.30206098 51352","mean_motion":15.30206098,"eccentricity":0.0001217,"inclination_deg":53.1582,"raan_deg":186.1003,"arg_perigee_deg":83.7337,"mean_anomaly_deg":276.3802,"bstar":0.00055081,"rev_number":5135,"period_min":94.104970688726,"perigee_km":474.36281121996,"apogee_km":476.03091268196,"semimajor_km":6853.333861951,"source":"CELESTRAK","updated_at":"2026-05-25T13:38:20.547607Z"}}